Content
SEND FEEDBACK

Daily
Averages
Monthly
Summary
Canada

RICHMOND NATURE PARK, BRITISH COLUMBIA


Home > North America > Canada > British Columbia
Elevation: 10 feet     Latitude: 49 10N     Longitude: 123 05W

WEATHER
 
SELECT A DAY
Number of Records: 194,180;   Date Range: 1/1/95 - 7/10/14
 
SHARE

PRINT THIS DATA

[ ← Previous Day ]
WEATHER ALMANAC - APRIL 4, 2013
[ Next Day → ]
[ °C ]   °F
Weather ElementAverageHighLow
Temperature51.3 °F55.4 °F (11:00 am)48.2 °F (1:00 am)
Dewpoint35.9 °F50 °F (6:00 pm) (7:00 pm)
Humidity83.7 %94 % (4:00 pm)59 % (11:00 am)
Wind Speed5.1 mph13.8 mph (11:00 pm)
Weather ElementAverage
Visibility11.7 mi
Wind DirectionSSE (172.7 °)

Weather ElementTotal
Precipitation---
Heating Degree Days13.2 (Base 65)
Growing Degree Days1.8 (Base 50)
Averaged from 35 records on April 4, 2013
WEATHER CONDITIONS BREAKOUT
WIND DIRECTION BREAKOUT
WEATHER BY HOUR - APRIL 4, 2013
[ °C ]   °F
Local TimeTemperatureDewpointHumidityBarometerVisibilityWind DirectionWind SpeedGust SpeedPrecipitationEventsConditions
1:00 AM48.2 °F44.6 °F87 %29.97 in20.0 miNW (320°)3.5 mphOvercast
2:00 AM50.0 °F42.8 °F76 %29.95 in20.0 miNW (320°)2.3 mphOvercast
3:00 AM48.2 °F44.6 °F87 %29.93 in20.0 miNorth (10°)2.3 mphOvercast
4:00 AM50.0 °F44.6 °F82 %29.91 in20.0 miWest (280°)4.6 mphOvercast
5:00 AM50.0 °F44.0 °F71 %29.87 in19.0 miCalmOvercast
5:00 AM50.0 °F42.8 °F76 %29.87 in20.0 miCalmOvercast
6:00 AM50.0 °F44.6 °F82 %29.85 in20.0 miCalmOvercast
7:00 AM48.2 °F44.6 °F87 %29.83 in20.0 miNW (320°)5.8 mphOvercast
8:00 AM50.0 °F44.6 °F82 %29.81 in20.0 miESE (120°)2.3 mphOvercast
9:00 AM51.8 °F44.6 °F76 %29.79 in20.0 miENE (60°)2.3 mphOvercast
10:00 AM53.6 °F44.6 °F72 %29.77 in20.0 miCalmOvercast
10:20 AM53.6 °F0.0 °F20.0 miNorth (350°)5.8 mphRainLight Rain
11:00 AM55.0 °F45.0 °F59 %29.77 in15.0 miWSW (250°)4.6 mphRainLight Rain
11:00 AM55.4 °F44.6 °F67 %29.77 in15.0 miWest (260°)4.6 mphRainLight Rain
12:00 PM51.8 °F46.4 °F82 %29.75 in15.0 miWNW (290°)3.5 mphRainLight Rain
1:00 PM51.8 °F46.4 °F82 %29.72 in10.0 miNNW (340°)4.6 mphRainLight Rain
2:00 PM51.8 °F48.2 °F88 %29.70 in10.0 miWSW (240°)4.6 mphRainLight Rain
3:00 PM51.8 °F46.4 °F82 %29.68 in8.0 miWest (280°)6.9 mphRainLight Rain
3:57 PM50.0 °F0.0 °F8.0 miNW (310°)5.8 mphRainLight Rain
4:00 PM50.0 °F48.2 °F94 %29.66 in6.0 miWNW (300°)4.6 mphRainLight Rain
4:28 PM50.0 °F0.0 °F5.0 miNNW (330°)3.5 mphRainLight Rain
5:00 PM50.0 °F48.0 °F90 %29.64 in6.0 miCalmRainLight Rain
5:00 PM50.0 °F48.2 °F94 %29.64 in6.0 miCalmRainLight Rain
6:00 PM51.8 °F50.0 °F94 %29.62 in5.0 miEast (90°)4.6 mphRainLight Rain
6:23 PM51.8 °F0.0 °F5.0 miEast (100°)9.2 mphRainLight Rain
6:29 PM51.8 °F0.0 °F5.0 miEast (90°)11.5 mphRainLight Rain
7:00 PM51.8 °F50.0 °F94 %29.60 in5.0 miEast (90°)9.2 mphRainLight Rain
8:00 PM51.8 °F50.0 °F94 %29.59 in3.0 miEast (100°)9.2 mphRainLight Rain
8:49 PM51.8 °F0.0 °F3.0 miESE (120°)6.9 mphRainLight Rain
9:00 PM51.8 °F50.0 °F94 %29.62 in3.0 miEast (100°)5.8 mphRainLight Rain
10:00 PM53.6 °F50.0 °F88 %29.63 in8.0 miESE (110°)8.1 mphRainLight Rain
10:28 PM51.8 °F0.0 °F8.0 miESE (120°)9.2 mphOvercast
10:41 PM51.8 °F0.0 °F8.0 miESE (120°)8.1 mphRainLight Rain
11:00 PM52.0 °F49.0 °F86 %29.64 in7.0 miSE (140°)12.7 mphRainLight Rain
11:00 PM51.8 °F50.0 °F94 %29.64 in8.0 miSE (140°)13.8 mphRainLight Rain
Hourly data recorded from CYVR, located miles away from Richmond Nature Park, British Columbia







STORIES FROM OUR PARTNERS